Wind_Speed
17 17 17 17 17 17 17 17 17 17 18 18 19 19 19 19 19 19 19 18 19 19 19 19 19 19 19 19 19 19 18 19 19 19 19 18 18 19
18 18 18 17 17 17 18 18 19 19 19 19 20 20 20 19 19 19 18 19 20 20 20 20 20 20 20 20 20 19 19 20 20 20 20 19 20 20
20 19 19 19 19 19 19 19 19 20 20 20 20 20 20 20 20 19 19 19 20 20 20 21 21 21 21 21 20 20 20 20 21 21 20 21 21 21
21 21 21 20 20 20 20 20 20 21 21 21 21 21 21 21 21 21 21 21 21 21 21 21 22 21 21 21 21 21 21 21 21 21 21 21 22 22
22 22 22 21 21 21 21 21 21 21 21 21 21 21 21 21 21 21 22 21 22 22 22 21 21 22 22 22 22 22 21 22 22 22 22 22 22 22
23 23 22 22 21 21 21 21 21 21 21 21 21 22 22 22 22 22 22 22 22 22 23 22 22 22 23 23 23 22 22 22 22 21 21 21 22 22
25 24 24 23 22 22 22 23 23 22 21 21 21 22 22 22 22 23 23 23 23 23 24 24 23 24 24 24 23 23 22 22 22 22 21 21 21 22
26 25 25 23 23 23 23 24 24 23 22 22 22 22 22 22 23 23 24 24 25 25 25 25 24 24 24 24 24 24 23 23 23 23 22 22 22 21
26 26 25 25 24 24 24 24 24 23 23 23 22 22 23 23 24 24 25 25 25 25 26 26 25 25 25 25 25 25 25 25 25 24 23 23 23 22
27 27 26 25 25 26 25 25 24 24 25 25 25 24 24 24 25 25 25 25 25 25 25 25 26 26 26 25 25 25 26 26 26 25 25 24 23 23
28 27 27 27 26 26 26 26 25 25 26 26 26 26 26 26 26 26 26 25 24 24 24 24 25 26 26 25 25 25 25 25 25 26 25 25 25 25
29 29 28 28 27 27 27 27 27 27 27 27 27 28 27 27 27 26 26 25 24 24 24 24 24 25 25 26 26 26 25 25 25 25 25 25 26 26
29 29 29 29 28 28 29 28 29 29 29 29 28 28 28 27 27 27 26 25 25 24 24 24 24 24 24 25 26 26 26 27 27 26 25 26 26 27
31 31 31 30 30 30 29 29 29 29 29 30 30 29 28 28 28 28 27 26 26 25 25 24 25 25 25 25 25 25 26 26 27 27 27 27 27 27
32 32 32 32 32 31 31 31 31 31 31 30 30 29 29 29 29 29 29 28 28 27 27 26 26 27 27 27 27 27 27 27 27 28 28 29 28 27
33 33 33 33 33 33 33 33 32 32 33 32 31 31 32 32 31 31 31 30 30 29 28 28 28 28 28 29 28 28 28 28 29 29 29 29 29 29
35 35 35 35 35 34 34 34 34 33 33 33 33 33 33 34 33 33 32 32 31 30 30 30 29 29 29 30 30 29 29 30 30 31 31 30 30 30
36 36 36 36 35 35 35 36 36 36 35 35 35 35 34 34 34 33 33 32 32 31 31 31 31 30 30 30 31 31 31 31 31 31 31 31 31 30
36 35 35 36 35 35 35 36 36 36 36 35 35 35 35 34 33 33 33 33 32 32 31 31 31 31 31 31 31 31 32 32 32 32 32 31 31 30
36 36 35 35 35 35 35 35 35 35 34 35 35 35 35 34 34 34 33 32 32 33 33 32 33 33 33 33 32 32 32 33 32 32 31 31 30 30
36 35 35 35 35 35 35 35 34 34 34 34 34 34 34 34 35 35 35 34 34 34 34 34 34 34 34 33 33 32 33 33 33 32 31 31 30 30
36 36 36 36 35 35 35 35 34 34 34 34 35 35 35 35 35 35 35 35 35 35 35 35 35 35 34 34 33 33 33 34 33 33 33 32 32 31
36 36 36 36 36 36 35 34 34 34 34 35 35 35 35 35 35 35 35 35 35 35 35 36 36 35 35 34 33 33 33 34 34 33 33 33 33 33
Wind_Direction
283 284 284 283 285 283 283 285 286 286 286 288 288 287 288 287 286 286 285 284 283 283 285 286 287 287 287 288 289 290 290 290 289 289 289 289 288 285
282 283 284 283 283 284 284 286 286 286 286 285 285 287 288 289 288 287 287 287 286 285 284 284 285 285 285 286 286 288 289 289 289 289 288 288 286 284
282 282 283 285 284 283 285 286 286 286 286 285 284 284 285 287 288 287 287 288 288 287 284 282 283 283 284 284 285 286 287 287 289 288 287 286 287 286
280 282 284 285 285 284 285 286 287 287 286 286 285 285 285 285 286 286 287 287 288 288 286 284 282 281 282 283 284 285 286 287 289 289 287 286 285 286
276 280 282 284 284 283 284 286 286 287 287 286 285 285 285 285 285 285 286 287 288 288 287 285 281 279 279 281 283 284 286 286 287 286 286 285 285 285
273 277 280 282 281 281 282 283 285 285 287 287 286 285 285 286 286 286 286 286 288 289 288 285 281 279 278 278 279 281 283 284 284 285 286 286 287 286
271 273 277 279 280 279 279 280 282 284 286 287 287 286 285 285 286 287 287 287 288 289 289 286 283 280 277 277 277 278 279 282 283 284 284 284 285 287
270 272 274 275 277 277 279 280 280 281 284 285 286 286 285 285 286 288 288 289 288 288 288 286 283 282 282 280 278 278 279 281 282 282 282 282 284 285
268 269 271 271 274 276 277 278 278 280 281 283 284 286 286 285 286 288 290 291 290 289 287 284 282 282 281 282 281 279 280 281 282 280 279 280 281 282
268 268 270 271 272 274 275 276 277 277 279 281 283 285 286 286 287 288 289 291 290 289 288 285 283 282 282 282 281 279 279 279 279 279 279 279 281 284
268 268 269 271 272 272 273 274 276 276 276 278 281 282 283 284 285 287 288 290 291 291 289 287 285 283 283 282 280 279 280 279 279 279 279 279 281 282
267 267 268 271 271 272 273 273 275 275 275 278 280 281 282 283 284 286 287 288 290 290 289 288 288 286 284 283 281 281 280 279 280 279 279 280 281 282
266 266 268 270 271 272 273 273 275 275 274 276 278 279 279 281 283 285 286 287 288 289 289 289 289 288 287 285 283 282 281 280 280 280 281 281 281 280
266 267 269 270 272 272 273 274 275 276 275 275 275 276 277 279 280 281 283 285 286 286 286 287 288 287 287 286 285 283 282 281 281 281 281 282 282 281
269 268 268 270 270 270 272 275 275 277 278 278 276 276 277 278 279 279 280 281 283 283 283 284 285 286 286 286 286 284 282 281 281 281 282 283 282 281
269 269 269 269 270 271 271 273 274 275 277 277 277 277 277 278 277 278 278 278 281 282 282 283 284 285 285 286 285 284 283 282 282 281 282 282 282 281
270 269 269 270 271 271 271 272 273 274 275 276 277 277 277 277 276 276 276 277 278 279 280 282 283 284 284 285 285 284 283 283 283 283 282 281 281 281
269 270 270 271 271 271 271 271 272 273 273 275 276 276 277 276 275 275 275 276 277 278 279 280 281 282 283 284 284 284 283 283 283 282 281 281 280 279
268 268 270 271 271 272 272 272 272 272 272 274 275 275 274 274 273 273 274 275 276 277 279 279 281 282 283 284 284 283 282 282 282 282 281 280 279 277
269 269 271 272 272 272 273 273 273 273 273 274 275 275 274 273 273 273 273 274 275 276 277 279 281 283 284 285 285 282 281 281 282 281 280 279 278 276
270 269 270 271 271 272 273 273 273 274 275 275 274 273 272 272 272 272 272 273 275 276 277 278 280 281 282 284 285 283 281 280 280 280 280 279 277 275
270 269 270 271 271 272 272 272 272 272 273 273 274 273 272 272 272 272 272 273 275 276 277 278 279 281 282 283 283 282 281 280 279 279 279 279 277 275
271 270 270 270 270 271 271 271 272 273 273 273 273 273 272 272 272 272 272 273 274 275 276 277 278 279 281 281 281 281 280 280 279 278 278 278 277 276
Height
5810 5809 5808 5807 5806 5805 5804 5803 5802 5801 5800 5798 5797 5795 5794 5793 5793 5792 5791 5790 5790 5789 5789 5788 5787 5787 5786 5785 5784 5783 5782 5781 5780 5779 5778 5777 5776 5774
5805 5804 5803 5802 5801 5800 5798 5797 5796 5795 5794 5793 5791 5790 5789 5788 5787 5786 5786 5785 5784 5783 5783 5782 5781 5781 5780 5779 5778 5777 5777 5776 5775 5774 5773 5771 5770 5769
5799 5798 5797 5796 5795 5794 5793 5791 5790 5789 5788 5787 5786 5784 5783 5782 5782 5781 5780 5779 5778 5777 5776 5776 5775 5775 5774 5773 5772 5772 5771 5770 5769 5768 5767 5766 5764 5763
5793 5792 5791 5790 5789 5788 5787 5785 5784 5783 5782 5781 5779 5778 5777 5776 5776 5775 5774 5773 5772 5771 5770 5769 5768 5768 5767 5767 5766 5766 5765 5764 5763 5762 5761 5760 5758 5757
5787 5786 5785 5784 5783 5782 5780 5779 5778 5776 5775 5774 5773 5772 5771 5770 5769 5769 5768 5767 5766 5765 5764 5762 5762 5761 5761 5761 5760 5759 5759 5758 5757 5756 5755 5753 5752 5751
5780 5780 5779 5778 5777 5776 5774 5773 5772 5770 5769 5768 5767 5766 5765 5763 5763 5762 5761 5760 5759 5758 5757 5756 5755 5754 5754 5754 5753 5753 5752 5751 5750 5750 5749 5747 5746 5744
5773 5773 5772 5771 5770 5769 5768 5767 5766 5764 5763 5762 5761 5759 5758 5757 5756 5755 5754 5753 5752 5751 5750 5748 5748 5747 5746 5746 5746 5746 5745 5744 5744 5743 5742 5741 5740 5738
5766 5765 5765 5764 5763 5762 5761 5761 5760 5758 5757 5756 5754 5753 5752 5751 5750 5748 5747 5746 5745 5744 5743 5741 5740 5739 5739 5739 5739 5738 5738 5737 5737 5736 5735 5734 5733 5731
5758 5758 5757 5757 5756 5755 5754 5753 5752 5751 5751 5749 5748 5747 5746 5745 5743 5742 5740 5739 5738 5736 5735 5734 5733 5732 5732 5731 5731 5731 5730 5730 5729 5728 5727 5726 5726 5724
5750 5750 5750 5749 5749 5748 5747 5746 5745 5744 5743 5743 5742 5741 5739 5738 5737 5735 5734 5732 5731 5729 5728 5727 5726 5725 5724 5724 5723 5723 5722 5721 5721 5720 5719 5718 5718 5717
5741 5742 5742 5742 5741 5741 5740 5739 5738 5737 5736 5735 5735 5733 5732 5731 5730 5728 5727 5725 5724 5722 5721 5720 5719 5718 5717 5716 5715 5715 5714 5713 5713 5712 5711 5711 5710 5709
5733 5733 5733 5733 5733 5733 5732 5732 5731 5730 5729 5728 5727 5726 5725 5724 5722 5721 5720 5719 5717 5716 5715 5714 5712 5711 5710 5709 5707 5707 5706 5705 5705 5704 5704 5703 5702 5701
5724 5724 5725 5725 5725 5724 5724 5723 5723 5722 5721 5720 5719 5718 5717 5716 5715 5714 5713 5712 5711 5710 5708 5707 5706 5704 5703 5702 5700 5699 5698 5697 5697 5696 5696 5695 5694 5693
5715 5715 5715 5715 5716 5716 5715 5715 5714 5713 5712 5711 5711 5710 5709 5708 5707 5706 5705 5704 5703 5703 5701 5700 5699 5697 5696 5695 5694 5692 5690 5689 5689 5688 5688 5687 5686 5685
5705 5705 5705 5705 5706 5706 5706 5705 5704 5704 5703 5702 5702 5702 5701 5700 5698 5698 5697 5696 5695 5694 5693 5692 5691 5689 5688 5687 5686 5684 5683 5682 5681 5680 5679 5678 5678 5677
5694 5695 5695 5695 5695 5695 5695 5695 5694 5694 5693 5693 5693 5692 5692 5690 5689 5689 5688 5687 5686 5685 5684 5683 5682 5681 5680 5679 5678 5676 5675 5674 5672 5671 5670 5670 5669 5668
5684 5684 5684 5684 5684 5684 5684 5684 5684 5684 5683 5683 5682 5682 5681 5681 5679 5679 5678 5678 5677 5676 5675 5674 5673 5672 5671 5670 5669 5668 5666 5665 5664 5662 5661 5661 5659 5658
5672 5673 5673 5673 5673 5674 5674 5673 5673 5673 5672 5672 5671 5671 5671 5670 5669 5669 5668 5668 5667 5667 5666 5665 5664 5663 5662 5661 5660 5658 5657 5656 5654 5653 5652 5651 5650 5649
5661 5662 5662 5662 5662 5662 5662 5662 5661 5661 5661 5661 5660 5660 5659 5659 5659 5658 5658 5658 5658 5657 5656 5655 5654 5653 5653 5652 5650 5648 5647 5645 5644 5643 5642 5641 5641 5640
5650 5651 5651 5651 5650 5650 5650 5650 5650 5649 5649 5649 5649 5648 5648 5648 5648 5648 5648 5647 5647 5647 5646 5645 5644 5643 5642 5642 5640 5639 5636 5635 5634 5633 5632 5631 5630 5630
5639 5639 5639 5639 5639 5639 5639 5639 5639 5638 5638 5638 5637 5637 5637 5637 5637 5637 5637 5637 5637 5636 5636 5635 5634 5633 5631 5630 5630 5629 5627 5625 5624 5623 5622 5621 5621 5620
5628 5628 5628 5628 5628 5627 5627 5627 5627 5627 5627 5626 5626 5626 5626 5626 5626 5626 5626 5626 5626 5625 5625 5624 5623 5622 5621 5620 5619 5618 5616 5614 5613 5612 5611 5611 5610 5610
5616 5616 5616 5616 5616 5616 5616 5616 5616 5616 5615 5615 5615 5615 5615 5615 5615 5615 5615 5614 5614 5614 5614 5613 5612 5611 5610 5609 5608 5606 5605 5603 5602 5601 5601 5599 5599 5599